Marion, IN

12:39 AM EDT on July 21, 2017 (GMT -0400)
Marion Municipal

Weather History for KMZZ - May, 2013

Change the Weather History Date:

Sunday, May 19, 2013

  Actual Average (KMIE) Record (KMIE)
Temperature  
Mean Temperature 70 °F -  
Max Temperature 82 °F 74 °F 92 °F (1977)
Min Temperature 59 °F 53 °F 30 °F (2002)
Cooling Degree Days 6    
Growing Degree Days 20 (Base 50)    
Moisture  
Dew Point 61 °F    
Average Humidity 70    
Maximum Humidity 87    
Minimum Humidity 49    
Precipitation  
Precipitation 0.00 in - - ()
Sea Level Pressure  
Sea Level Pressure 29.96 in    
Wind  
Wind Speed 4 mph (SSE)    
Max Wind Speed 10 mph    
Max Gust Speed -    
Visibility 8 miles    
Events      
Averages and records for this station are not official NWS values.
T = Trace of Precipitation, MM = Missing Value Source: NWS Daily Summary

Daily Weather History Graph

Daily Weather History Graph

Search for Another Location

Airport or City:

Trip Planner

Search our weather history database for the weather conditions in past years. The results will help you decide how hot, cold, wet, or windy it might be!

Date:

Astronomy

May. 19, 2013 Rise Set
Actual Time 6:22 AM EDT 8:56 PM EDT
Civil Twilight 5:51 AM EDT 9:27 PM EDT
Nautical Twilight 5:12 AM EDT 10:07 PM EDT
Astronomical Twilight 4:28 AM EDT 10:51 PM EDT
Moon 2:58 PM EDT (5/19) 2:47 AM EDT (5/19)
Length of Visible Light 15h 36m
Length of Day
14h 33m
Waxing Gibbous, 65% of the Moon is Illuminated
May 19
Waxing Gibbous
May 25
Full
May 31
Last Quarter
Jun 8
New
Jun 16
First Quarter

Hourly Weather History & Observations

Time (EDT) Temp. Heat Index Dew Point Humidity Pressure Visibility Wind Dir Wind Speed Gust Speed Precip Events Conditions
12:15 AM 65.7 °F - 61.2 °F 85% 30.00 in 7.0 mi East 4.6 mph - N/A   Overcast
12:35 AM 65.7 °F - 61.7 °F 87% 30.00 in 7.0 mi Calm Calm - N/A   Overcast
12:55 AM 66.7 °F - 61.0 °F 82% 30.00 in 7.0 mi East 5.8 mph - N/A   Overcast
1:15 AM 66.2 °F - 60.8 °F 83% 29.99 in 10.0 mi ENE 4.6 mph - N/A   Mostly Cloudy
1:35 AM 65.5 °F - 60.6 °F 84% 29.99 in 7.0 mi East 4.6 mph - N/A   Mostly Cloudy
2:15 AM 64.6 °F - 60.6 °F 87% 29.98 in 7.0 mi Calm Calm - N/A   Overcast
2:35 AM 65.1 °F - 60.4 °F 85% 29.97 in 7.0 mi Calm Calm - N/A   Overcast
2:55 AM 64.8 °F - 59.7 °F 84% 29.96 in 7.0 mi ESE 5.8 mph - N/A   Scattered Clouds
3:15 AM 63.1 °F - 59.2 °F 87% 29.97 in 7.0 mi Calm Calm - N/A   Clear
3:35 AM 63.0 °F - 58.8 °F 86% 29.98 in 7.0 mi Calm Calm - N/A   Clear
3:55 AM 62.1 °F - 58.1 °F 87% 29.96 in 7.0 mi East 8.1 mph - N/A   Clear
4:15 AM 62.1 °F - 57.2 °F 84% 29.97 in 7.0 mi NE 4.6 mph - N/A   Clear
4:35 AM 62.2 °F - 56.3 °F 81% 29.99 in 10.0 mi Calm Calm - N/A   Clear
4:55 AM 61.9 °F - 55.9 °F 81% 29.99 in 10.0 mi Calm Calm - N/A   Clear
5:15 AM 60.6 °F - 55.6 °F 83% 29.99 in 10.0 mi Calm Calm - N/A   Clear
5:35 AM 60.1 °F - 55.4 °F 85% 29.99 in 10.0 mi ESE 5.8 mph - N/A   Clear
5:55 AM 59.7 °F - 54.1 °F 82% 29.99 in 7.0 mi Calm Calm - N/A   Scattered Clouds
6:15 AM 59.4 °F - 54.0 °F 82% 29.99 in 7.0 mi Calm Calm - N/A   Scattered Clouds
6:35 AM 59.2 °F - 53.8 °F 82% 29.99 in 5.0 mi Calm Calm - N/A   Haze
6:55 AM 59.5 °F - 53.8 °F 81% 29.99 in 7.0 mi Calm Calm - N/A   Clear
7:15 AM 59.5 °F - 54.5 °F 83% 29.99 in 5.0 mi ESE 6.9 mph - N/A   Haze
7:35 AM 60.4 °F - 55.4 °F 83% 29.99 in 7.0 mi ESE 4.6 mph - N/A   Clear
8:15 AM 63.5 °F - 57.9 °F 82% 29.99 in 5.0 mi SE 3.5 mph - N/A   Haze
8:35 AM 65.7 °F - 60.3 °F 83% 29.99 in 5.0 mi SE 3.5 mph - N/A   Haze
8:55 AM 67.3 °F - 61.9 °F 83% 30.00 in 5.0 mi South 5.8 mph - N/A   Haze
9:15 AM 68.9 °F - 62.6 °F 80% 30.01 in 7.0 mi SSW 4.6 mph - N/A   Clear
9:35 AM 69.6 °F - 63.3 °F 80% 30.00 in 7.0 mi SSE 3.5 mph - N/A   Clear
9:55 AM 70.9 °F - 63.9 °F 78% 30.00 in 7.0 mi Calm Calm - N/A   Clear
10:15 AM 71.8 °F - 63.3 °F 75% 30.01 in 7.0 mi Calm Calm - N/A   Clear
10:55 AM 74.1 °F - 63.7 °F 70% 29.99 in 7.0 mi ESE 4.6 mph - N/A   Clear
11:15 AM 74.8 °F - 63.9 °F 69% 29.99 in 7.0 mi SE 8.1 mph - N/A   Clear
11:35 AM 75.0 °F - 64.4 °F 69% 29.99 in 7.0 mi South 5.8 mph - N/A   Scattered Clouds
11:55 AM 75.6 °F - 64.2 °F 68% 30.00 in 7.0 mi SSE 8.1 mph - N/A   Scattered Clouds
12:15 PM 76.1 °F - 64.2 °F 67% 30.00 in 7.0 mi SSW 6.9 mph - N/A   Mostly Cloudy
12:35 PM 77.2 °F - 63.9 °F 63% 30.00 in 7.0 mi SSE 8.1 mph - N/A   Mostly Cloudy
12:55 PM 77.0 °F - 63.3 °F 63% 30.00 in 7.0 mi SW 6.9 mph - N/A   Mostly Cloudy
1:15 PM 76.5 °F - 63.7 °F 64% 29.99 in 10.0 mi SSW 3.5 mph - N/A   Mostly Cloudy
1:35 PM 77.4 °F - 63.9 °F 63% 29.98 in 10.0 mi South 3.5 mph - N/A   Mostly Cloudy
1:55 PM 77.5 °F - 63.3 °F 61% 29.97 in 7.0 mi SSE 4.6 mph - N/A   Mostly Cloudy
2:15 PM 78.6 °F - 62.4 °F 57% 29.96 in 10.0 mi SE 4.6 mph - N/A   Scattered Clouds
2:35 PM 79.0 °F - 63.0 °F 58% 29.94 in 7.0 mi SE 6.9 mph - N/A   Clear
3:15 PM 80.4 °F 81.7 °F 62.8 °F 55% 29.92 in 10.0 mi ESE 9.2 mph - N/A   Clear
3:35 PM 80.4 °F 81.7 °F 63.1 °F 55% 29.92 in 7.0 mi SE 6.9 mph - N/A   Scattered Clouds
4:15 PM 81.5 °F 82.7 °F 63.0 °F 53% 29.92 in 7.0 mi SW 3.5 mph - N/A   Mostly Cloudy
4:35 PM 81.7 °F 82.7 °F 62.2 °F 52% 29.92 in 5.0 mi SSE 6.9 mph - N/A   Haze
4:55 PM 81.5 °F 82.5 °F 62.4 °F 52% 29.91 in 7.0 mi South 8.1 mph - N/A   Mostly Cloudy
5:15 PM 82.0 °F 83.1 °F 62.8 °F 52% 29.91 in 7.0 mi South 9.2 mph - N/A   Scattered Clouds
5:35 PM 81.9 °F 82.9 °F 62.4 °F 52% 29.90 in 7.0 mi South 8.1 mph - N/A   Scattered Clouds
5:55 PM 82.4 °F 83.4 °F 62.4 °F 51% 29.92 in 7.0 mi SSW 10.4 mph - N/A   Scattered Clouds
6:15 PM 81.9 °F 82.6 °F 61.7 °F 50% 29.90 in 10.0 mi SSE 8.1 mph - N/A   Scattered Clouds
6:35 PM 81.5 °F 82.2 °F 61.3 °F 50% 29.90 in 7.0 mi South 9.2 mph - N/A   Clear
6:55 PM 81.7 °F 82.3 °F 61.0 °F 49% 29.91 in 10.0 mi South 10.4 mph - N/A   Clear
7:15 PM 81.5 °F 82.1 °F 60.4 °F 49% 29.90 in 7.0 mi South 9.2 mph - N/A   Clear
7:35 PM 80.8 °F 81.6 °F 61.2 °F 51% 29.88 in 10.0 mi SSE 9.2 mph - N/A   Clear
7:55 PM 80.1 °F 81.1 °F 60.8 °F 52% 29.88 in 7.0 mi SSE 8.1 mph - N/A   Clear
8:15 PM 79.2 °F - 61.3 °F 54% 29.87 in 7.0 mi SSE 8.1 mph - N/A   Clear
8:35 PM 78.1 °F - 61.7 °F 57% 29.88 in 7.0 mi SSE 6.9 mph - N/A   Clear
8:55 PM 76.8 °F - 62.1 °F 60% 29.88 in 10.0 mi SE 6.9 mph - N/A   Clear
9:15 PM 76.1 °F - 62.1 °F 62% 29.89 in 7.0 mi SSE 5.8 mph - N/A   Clear
9:35 PM 75.4 °F - 62.6 °F 64% 29.90 in 10.0 mi SSE 5.8 mph - N/A   Clear
9:55 PM 74.1 °F - 62.6 °F 67% 29.91 in 10.0 mi SSE 5.8 mph - N/A   Clear
10:15 PM 73.6 °F - 62.6 °F 68% 29.91 in 10.0 mi SSE 5.8 mph - N/A   Clear
10:35 PM 73.0 °F - 62.6 °F 70% 29.92 in 10.0 mi SSE 5.8 mph - N/A   Clear
10:55 PM 72.7 °F - 62.6 °F 71% 29.92 in 10.0 mi SSE 5.8 mph - N/A   Clear
11:15 PM 72.7 °F - 62.6 °F 71% 29.92 in 10.0 mi SSE 8.1 mph - N/A   Clear
11:35 PM 72.5 °F - 62.6 °F 71% 29.92 in 10.0 mi SSE 8.1 mph - N/A   Clear